Wind_Speed
69 69 70 73 78 82 83 84 89 90 90 91 90 86 78 73 72 70 68 67 64 62 60 60 60 60 60 60 59 57 56 56 54 51 48 50 49 52
71 72 75 79 81 82 86 90 89 89 88 88 81 75 74 73 70 65 59 55 53 52 52 51 50 50 49 49 48 47 44 43 43 43 44 45 46 48
71 76 78 78 81 84 85 86 86 87 85 77 70 71 73 72 64 58 54 52 50 47 45 43 42 41 41 40 38 38 38 38 39 40 42 43 44 45
75 79 80 82 84 84 83 84 85 84 78 70 65 69 71 66 58 54 52 49 45 42 40 37 36 36 36 36 35 34 34 35 38 40 41 43 44 46
80 80 83 82 83 84 84 84 84 76 70 65 64 67 68 60 53 51 47 44 41 41 39 40 38 36 33 33 31 32 32 32 35 37 38 39 40 42
81 87 81 82 84 84 85 82 77 70 66 64 63 67 64 54 50 46 41 40 39 42 42 41 36 35 31 29 28 28 29 30 32 33 33 34 37 40
86 85 82 84 84 85 81 77 72 66 64 63 63 65 59 50 47 42 38 37 40 42 42 41 37 32 27 26 25 27 28 31 32 33 35 37 40 41
87 82 84 85 85 82 78 75 67 65 62 63 64 62 54 48 44 39 36 37 39 41 39 38 37 33 27 25 25 25 27 30 32 34 36 37 38 38
81 84 85 84 83 79 76 70 64 62 62 63 63 58 49 45 41 36 36 37 39 40 38 34 35 33 29 27 27 27 28 30 32 35 35 35 36 36
82 84 85 85 81 77 70 64 62 61 64 64 61 53 46 43 38 34 35 36 37 39 37 35 31 30 30 29 28 28 27 30 34 35 34 33 34 36
84 85 85 83 78 72 64 60 61 64 65 61 56 47 42 40 36 33 34 34 34 35 37 35 32 25 27 30 29 29 27 29 32 33 32 33 36 39
85 85 82 76 69 64 61 62 64 66 63 58 50 43 39 37 34 32 32 32 33 32 33 30 31 25 19 28 28 30 27 28 27 29 31 33 35 37
87 82 75 68 64 63 65 64 63 64 60 52 44 40 38 35 32 31 31 32 32 32 31 29 28 28 24 18 27 28 27 27 26 28 28 29 32 35
83 75 68 67 66 65 64 65 64 62 53 46 39 37 35 33 30 29 31 32 33 30 30 28 27 28 26 21 20 25 26 25 23 23 22 17 17 19
76 70 69 68 67 68 68 62 58 52 47 40 35 35 33 30 28 28 30 31 31 29 28 26 25 28 27 19 20 22 20 21 18 12 7 10 11 14
75 74 72 70 68 65 58 53 50 45 42 35 33 33 31 28 27 26 29 29 28 29 28 25 24 26 25 17 18 19 15 13 7 1 3 9 9 6
74 72 68 63 58 56 51 49 45 42 38 32 32 30 29 26 25 26 26 27 26 25 26 26 25 25 22 17 17 14 10 6 3 3 5 7 17 14
68 66 64 60 54 51 47 44 41 37 34 32 29 28 27 24 24 25 25 25 24 23 22 21 22 26 18 15 15 11 6 5 6 5 7 7 4 6
66 58 53 47 44 43 40 38 38 34 32 30 27 27 26 22 23 24 24 23 22 21 19 18 19 22 17 12 11 9 6 9 9 9 13 8 8 7
58 52 47 42 40 37 35 33 35 34 29 27 27 26 25 22 22 23 22 21 20 20 18 16 17 19 17 11 9 7 7 11 13 13 18 13 10 10
49 49 45 40 38 35 32 33 33 32 30 27 26 25 23 22 22 21 20 19 19 19 17 15 15 17 17 11 8 6 6 10 15 15 17 22 15 12
47 41 39 38 36 33 34 33 32 32 31 26 26 24 23 23 22 20 19 18 18 18 16 15 13 15 16 12 8 6 6 8 14 18 17 22 24 18
42 36 34 35 35 34 32 32 31 32 29 25 26 26 24 23 23 20 19 17 17 17 16 14 13 13 14 14 9 7 4 6 10 16 20 20 30 25
Wind_Direction
308 307 307 308 309 309 309 308 311 312 314 315 315 316 312 308 304 300 297 295 296 294 291 287 284 280 278 275 273 269 266 261 257 253 250 249 249 249
306 306 306 308 310 309 308 310 313 314 315 316 317 314 313 311 308 304 303 301 299 295 292 289 286 283 279 276 271 267 263 257 254 253 252 251 250 249
304 307 307 309 309 308 309 312 313 314 317 317 314 314 314 313 308 306 305 302 301 298 296 293 288 285 282 277 273 268 264 262 259 258 258 256 252 249
303 307 308 306 309 309 311 313 313 316 316 315 312 315 316 312 309 308 306 305 304 302 300 297 297 293 287 281 276 271 265 261 261 261 260 258 255 251
303 305 306 306 308 311 312 312 315 315 314 312 311 316 317 312 310 309 307 306 307 307 310 309 305 298 290 280 274 269 266 265 262 263 262 259 256 252
302 307 305 308 310 311 311 312 313 313 312 311 313 316 316 311 310 309 307 307 310 310 312 308 304 298 290 281 274 270 271 269 266 263 261 260 258 254
303 305 307 308 309 309 311 312 312 311 311 311 314 316 314 310 309 308 307 307 308 309 311 310 305 303 290 282 277 274 272 272 269 266 265 266 263 255
303 305 306 307 308 309 310 310 311 310 310 311 314 314 311 307 308 306 305 306 307 307 309 311 309 306 297 287 282 278 275 272 272 273 273 270 264 258
301 303 305 307 308 308 308 308 309 309 309 312 313 311 308 305 306 304 304 305 306 307 310 312 308 304 298 289 286 284 281 278 276 278 275 268 264 260
301 304 306 307 307 306 307 308 308 309 309 311 310 307 304 302 302 301 302 304 306 307 308 311 309 304 298 290 288 287 285 283 284 283 274 268 264 260
303 305 306 306 306 306 307 307 307 307 307 308 307 303 300 299 299 299 301 304 307 307 306 310 309 307 300 291 290 286 282 279 283 277 274 270 267 264
305 305 305 305 305 306 305 305 306 304 307 306 302 299 297 296 295 297 300 303 305 307 306 309 309 309 306 292 289 287 288 290 288 283 283 279 272 267
304 304 305 305 305 304 303 304 304 304 304 302 298 295 294 295 293 296 298 302 305 309 309 312 313 315 312 288 289 292 298 298 298 295 292 285 277 270
304 305 305 304 303 302 302 302 302 301 301 298 292 290 291 293 291 294 298 303 305 307 308 314 318 316 312 303 289 297 302 303 301 300 294 291 291 287
306 305 303 302 300 300 299 300 297 298 297 294 287 286 289 289 288 292 298 301 302 305 308 314 318 320 314 305 297 306 307 308 309 304 315 310 307 295
304 303 301 299 298 297 298 296 296 296 293 290 280 282 285 284 284 291 296 299 301 305 309 314 319 325 312 306 309 314 313 307 299 313 338 344 346 12
302 300 300 298 295 294 294 293 293 291 288 283 275 278 279 278 281 290 293 296 299 302 306 312 320 328 313 309 319 320 306 294 186 145 41 67 93 72
303 302 298 294 290 289 288 289 288 286 284 279 272 272 271 271 278 287 291 294 297 301 303 308 320 325 315 309 323 321 297 214 177 166 126 97 80 5
301 301 300 295 288 284 284 281 282 284 282 279 268 266 265 264 275 284 288 292 295 297 300 303 317 324 314 305 322 314 264 207 188 188 162 163 149 159
299 298 297 293 289 285 280 278 281 282 281 276 265 262 257 257 270 279 284 289 293 295 298 302 314 325 321 301 316 306 249 218 200 199 187 186 173 160
298 295 290 286 284 283 275 277 279 278 282 272 260 255 250 253 265 274 281 287 289 289 296 298 309 322 329 305 304 303 264 224 213 207 199 196 193 189
299 294 288 282 277 276 274 276 275 273 278 266 253 246 243 248 259 269 278 282 285 284 290 292 301 316 329 323 295 295 287 233 219 215 212 208 202 199
297 291 285 279 275 271 269 269 272 267 271 256 246 239 238 242 253 263 273 280 281 281 284 286 290 306 322 334 312 278 273 263 238 224 217 216 210 209
Height
5662 5654 5646 5637 5628 5618 5608 5598 5588 5581 5569 5554 5545 5534 5521 5511 5500 5491 5483 5476 5469 5463 5458 5455 5452 5448 5445 5444 5443 5443 5442 5443 5442 5444 5448 5451 5454 5457
5647 5639 5630 5621 5611 5601 5590 5579 5568 5558 5552 5537 5523 5512 5500 5489 5480 5471 5464 5457 5452 5446 5442 5437 5433 5429 5426 5424 5424 5424 5424 5425 5426 5429 5432 5435 5438 5440
5633 5624 5615 5605 5595 5585 5574 5563 5552 5541 5532 5519 5508 5495 5484 5472 5462 5455 5448 5442 5437 5431 5427 5423 5418 5414 5412 5410 5409 5409 5410 5410 5412 5415 5417 5420 5423 5426
5618 5609 5598 5589 5578 5568 5558 5547 5536 5524 5512 5504 5492 5483 5471 5458 5449 5441 5434 5427 5422 5418 5414 5410 5406 5402 5399 5397 5396 5396 5397 5398 5399 5401 5402 5404 5407 5410
5602 5592 5582 5573 5562 5551 5541 5531 5519 5508 5497 5489 5480 5468 5457 5445 5437 5429 5422 5416 5410 5405 5401 5397 5394 5390 5387 5385 5385 5384 5385 5386 5386 5386 5387 5389 5391 5394
5586 5575 5566 5556 5545 5535 5525 5513 5503 5493 5483 5475 5466 5455 5443 5434 5426 5419 5413 5406 5401 5394 5391 5387 5384 5380 5377 5375 5375 5374 5374 5374 5374 5375 5375 5376 5378 5380
5569 5559 5549 5540 5531 5519 5508 5497 5487 5478 5469 5461 5453 5442 5431 5423 5416 5409 5404 5399 5393 5387 5382 5377 5373 5370 5368 5366 5365 5364 5363 5363 5363 5364 5364 5365 5365 5367
5553 5543 5533 5524 5513 5501 5491 5482 5473 5463 5456 5447 5439 5429 5420 5412 5406 5400 5395 5391 5386 5380 5376 5370 5364 5360 5358 5356 5355 5354 5354 5353 5352 5352 5352 5351 5352 5353
5538 5527 5516 5505 5494 5484 5474 5466 5459 5449 5441 5434 5426 5416 5410 5402 5396 5391 5387 5382 5377 5371 5368 5364 5357 5351 5348 5346 5345 5345 5344 5343 5342 5340 5340 5339 5339 5341
5520 5509 5499 5488 5476 5466 5458 5450 5442 5434 5426 5421 5412 5404 5398 5393 5387 5383 5378 5374 5369 5363 5358 5356 5350 5345 5340 5337 5337 5336 5335 5333 5331 5329 5329 5329 5329 5329
5503 5492 5481 5469 5458 5449 5442 5435 5428 5420 5413 5406 5399 5393 5388 5383 5378 5374 5370 5366 5361 5356 5350 5346 5341 5339 5332 5328 5327 5326 5326 5325 5322 5319 5318 5318 5317 5317
5485 5473 5461 5450 5442 5434 5426 5421 5414 5404 5398 5392 5386 5381 5377 5373 5369 5365 5361 5358 5353 5350 5344 5340 5333 5330 5328 5320 5318 5316 5316 5315 5312 5309 5307 5305 5303 5302
5465 5454 5441 5431 5425 5419 5411 5405 5398 5389 5383 5377 5373 5369 5366 5363 5360 5356 5353 5349 5345 5341 5336 5332 5327 5321 5318 5317 5310 5308 5307 5304 5302 5298 5296 5293 5290 5287
5443 5434 5424 5415 5408 5402 5395 5388 5381 5374 5369 5364 5361 5357 5355 5353 5350 5348 5344 5341 5336 5334 5329 5325 5320 5314 5311 5309 5306 5301 5298 5296 5294 5290 5286 5283 5281 5278
5419 5413 5406 5398 5390 5384 5377 5371 5364 5359 5355 5352 5349 5347 5346 5344 5342 5340 5336 5333 5329 5325 5323 5319 5314 5308 5303 5302 5298 5296 5293 5289 5287 5284 5282 5281 5278 5274
5397 5390 5385 5379 5371 5364 5360 5354 5349 5345 5342 5341 5339 5337 5336 5335 5333 5332 5329 5326 5322 5317 5314 5312 5308 5303 5298 5296 5293 5290 5287 5285 5283 5282 5281 5279 5275 5272
5380 5371 5364 5358 5353 5347 5343 5339 5335 5332 5330 5329 5328 5328 5326 5326 5325 5324 5322 5319 5316 5312 5308 5304 5300 5298 5293 5291 5288 5286 5284 5282 5282 5281 5281 5279 5277 5276
5358 5352 5346 5339 5335 5330 5328 5325 5322 5319 5318 5317 5318 5318 5317 5317 5317 5316 5315 5312 5309 5306 5303 5300 5296 5292 5289 5287 5285 5282 5281 5280 5281 5281 5281 5280 5279 5278
5337 5332 5326 5322 5318 5315 5313 5312 5310 5308 5307 5307 5308 5308 5308 5309 5309 5309 5308 5305 5303 5301 5298 5296 5293 5289 5285 5283 5281 5279 5278 5278 5279 5279 5280 5280 5280 5280
5319 5315 5310 5307 5304 5302 5301 5300 5298 5297 5296 5297 5298 5298 5300 5301 5302 5302 5301 5299 5297 5295 5293 5291 5289 5286 5282 5280 5278 5276 5275 5276 5277 5278 5279 5279 5280 5280
5303 5299 5295 5292 5291 5289 5289 5288 5287 5286 5286 5287 5288 5289 5291 5293 5294 5294 5294 5292 5291 5289 5287 5286 5284 5282 5279 5276 5275 5274 5272 5273 5274 5275 5277 5278 5279 5280
5287 5284 5280 5279 5277 5277 5277 5277 5276 5276 5276 5277 5278 5280 5283 5286 5287 5287 5287 5286 5285 5284 5283 5281 5280 5278 5276 5272 5271 5271 5270 5269 5270 5272 5273 5275 5277 5278
5272 5269 5267 5265 5265 5264 5264 5265 5265 5265 5266 5267 5269 5271 5274 5278 5279 5281 5281 5280 5280 5278 5277 5277 5275 5275 5273 5270 5268 5267 5267 5266 5266 5267 5269 5271 5273 5276